Terminal Aerodrome Forecast
Issued by NWS

Home | Current Version | Previous Version | Text Only | Print | Product List | Glossary On
Versions: 1 2 3 4 5 6 7 8 9 10 11 12 13 14 15 16 17 18 19 20 21 22 23 24 25 26
000
FTUS41 KBOX 051133
TAFFMH
TAF
KFMH 051133Z 0512/0612 24009KT P6SM BKN120
     FM051800 04008KT P6SM BKN060
     FM052000 10008KT P6SM BKN150
     FM052300 14006KT P6SM SCT200
     FM060900 00000KT P6SM BKN110
      AMD NOT SKED=

USA.gov is the U.S. government's official web portal to all federal, state and local government web resources and services.